Location: Champignolles
(47.0543°N, 4.5663°E)
Time: 14:33:59
(UTC+00:00)

Cosmos 1680 Rocket - Pass Details

Date: 30 November 2020
Orbit: 760 x 781 km, 74.1° (Epoch: 27 January)

Event Time Altitude Azimuth Distance (km) Brightness Sun altitude
Rises 18:18:03 0° 188° (S) 3,229 6.9 -23.7°
Reaches altitude 10° 18:20:26 10° 185° (S) 2,310 6.1 -24.1°
Enters shadow 18:24:36 50° 149° (SSE) 987 3.8 -24.8°
